Martinsville, VA

7:48 AM EDT on May 29, 2017 (GMT -0400)
Blue Ridge

Weather History for KMTV - January, 2014

Change the Weather History Date:

Friday, January 17, 2014

  Actual Average (KINT) Record (KINT)
Temperature  
Mean Temperature 34 °F -  
Max Temperature 49 °F 45 °F 70 °F (1974)
Min Temperature 19 °F 29 °F -8 °F (1977)
Degree Days  
Heating Degree Days 31    
Moisture  
Dew Point 22 °F    
Average Humidity 70    
Maximum Humidity 96    
Minimum Humidity 35    
Precipitation  
Precipitation 0.00 in - - ()
Sea Level Pressure  
Sea Level Pressure 29.91 in    
Wind  
Wind Speed 1 mph (SSW)    
Max Wind Speed 9 mph    
Max Gust Speed 17 mph    
Visibility 10 miles    
Events      
Averages and records for this station are not official NWS values.
T = Trace of Precipitation, MM = Missing Value Source: NWS Daily Summary

Daily Weather History Graph

Daily Weather History Graph

Search for Another Location

Airport or City:

Trip Planner

Search our weather history database for the weather conditions in past years. The results will help you decide how hot, cold, wet, or windy it might be!

Date:

Astronomy

Jan. 17, 2014 Rise Set
Actual Time 7:30 AM EST 5:29 PM EST
Civil Twilight 7:02 AM EST 5:58 PM EST
Nautical Twilight 6:31 AM EST 6:29 PM EST
Astronomical Twilight 6:00 AM EST 7:00 PM EST
Moon 7:11 PM EST (1/17) 8:01 AM EST (1/17)
Length of Visible Light 10h 55m
Length of Day
9h 59m
Full, 98% of the Moon is Illuminated
Jan 17
Full
Jan 24
Last Quarter
Jan 30
New
Feb 6
First Quarter
Feb 14
Full

Hourly Weather History & Observations

Time (EST) Temp. Windchill Dew Point Humidity Pressure Visibility Wind Dir Wind Speed Gust Speed Precip Events Conditions
12:15 AM 23.7 °F - 20.3 °F 87% 29.98 in 10.0 mi Calm Calm - N/A   Clear
12:35 AM 23.4 °F - 20.8 °F 90% 29.98 in 10.0 mi Calm Calm - N/A   Clear
12:55 AM 22.8 °F - 19.8 °F 88% 29.98 in 10.0 mi Calm Calm - N/A   Clear
1:15 AM 22.5 °F - 20.3 °F 91% 29.97 in 10.0 mi Calm Calm - N/A   Clear
1:35 AM 22.8 °F - 19.6 °F 87% 29.97 in 10.0 mi Calm Calm - N/A   Clear
1:55 AM 21.9 °F - 19.9 °F 92% 29.96 in 10.0 mi Calm Calm - N/A   Clear
2:15 AM 21.6 °F - 19.8 °F 93% 29.96 in 10.0 mi Calm Calm - N/A   Clear
2:35 AM 22.3 °F - 19.6 °F 89% 29.96 in 10.0 mi Calm Calm - N/A   Clear
2:55 AM 21.6 °F - 18.9 °F 89% 29.96 in 10.0 mi Calm Calm - N/A   Clear
3:15 AM 20.8 °F - 19.2 °F 93% 29.96 in 10.0 mi Calm Calm - N/A   Clear
3:35 AM 21.6 °F - 19.9 °F 93% 29.96 in 10.0 mi Calm Calm - N/A   Clear
3:55 AM 21.2 °F - 19.8 °F 94% 29.96 in 10.0 mi Calm Calm - N/A   Clear
4:15 AM 20.8 °F - 19.4 °F 94% 29.96 in 10.0 mi Calm Calm - N/A   Clear
4:35 AM 21.7 °F - 19.9 °F 93% 29.96 in 10.0 mi Calm Calm - N/A   Clear
4:55 AM 20.5 °F - 19.0 °F 94% 29.96 in 10.0 mi Calm Calm - N/A   Clear
5:15 AM 21.2 °F - 19.4 °F 93% 29.96 in 10.0 mi Calm Calm - N/A   Clear
5:35 AM 19.4 °F - 18.0 °F 94% 29.94 in 10.0 mi Calm Calm - N/A   Clear
5:55 AM 19.4 °F - 18.1 °F 95% 29.95 in 10.0 mi Calm Calm - N/A   Clear
6:15 AM 19.6 °F - 18.1 °F 94% 29.95 in 10.0 mi Calm Calm - N/A   Clear
6:35 AM 19.6 °F - 18.5 °F 96% 29.96 in 10.0 mi Calm Calm - N/A   Clear
6:55 AM 19.4 °F - 17.8 °F 93% 29.95 in 10.0 mi Calm Calm - N/A   Clear
7:15 AM 19.0 °F - 17.6 °F 94% 29.96 in 10.0 mi Calm Calm - N/A   Clear
7:35 AM 19.2 °F - 17.8 °F 94% 29.96 in 10.0 mi Calm Calm - N/A   Clear
7:55 AM 20.1 °F 15.2 °F 18.5 °F 93% 29.96 in 10.0 mi SSE 3.5 mph - N/A   Clear
8:15 AM 22.3 °F - 20.3 °F 92% 29.96 in 10.0 mi Calm Calm - N/A   Scattered Clouds
8:35 AM 25.9 °F - 22.6 °F 88% 29.97 in 10.0 mi Calm Calm - N/A   Clear
8:55 AM 29.7 °F 26.1 °F 21.2 °F 71% 29.98 in 10.0 mi South 3.5 mph - N/A   Scattered Clouds
9:15 AM 31.6 °F 28.3 °F 20.3 °F 63% 29.98 in 10.0 mi SSW 3.5 mph - N/A   Mostly Cloudy
9:35 AM 31.8 °F 27.3 °F 20.1 °F 62% 29.98 in 10.0 mi SW 4.6 mph - N/A   Overcast
9:55 AM 32.7 °F 29.6 °F 20.1 °F 60% 29.98 in 10.0 mi WSW 3.5 mph - N/A   Overcast
10:15 AM 34.3 °F 30.2 °F 19.8 °F 55% 29.98 in 10.0 mi SSW 4.6 mph - N/A   Mostly Cloudy
10:35 AM 36.5 °F - 19.9 °F 51% 29.97 in 10.0 mi Calm Calm - N/A   Scattered Clouds
10:55 AM 38.8 °F 36.5 °F 19.6 °F 46% 29.96 in 10.0 mi South 3.5 mph - N/A   Clear
11:15 AM 40.5 °F 38.4 °F 20.7 °F 45% 29.96 in 10.0 mi South 3.5 mph - N/A   Clear
11:35 AM 41.9 °F 39.0 °F 20.3 °F 42% 29.95 in 10.0 mi South 4.6 mph - N/A   Clear
11:55 AM 43.3 °F 39.9 °F 20.1 °F 40% 29.93 in 10.0 mi SSW 5.8 mph - N/A   Clear
12:15 PM 44.8 °F 42.4 °F 19.9 °F 37% 29.91 in 10.0 mi South 4.6 mph - N/A   Clear
12:35 PM 45.5 °F 41.8 °F 19.9 °F 36% 29.90 in 10.0 mi SSW 6.9 mph - N/A   Clear
12:55 PM 45.9 °F 44.6 °F 19.6 °F 35% 29.89 in 10.0 mi SW 3.5 mph - N/A   Clear
1:15 PM 45.1 °F 42.8 °F 20.7 °F 38% 29.88 in 10.0 mi South 4.6 mph - N/A   Clear
1:35 PM 46.8 °F - 21.2 °F 36% 29.86 in 10.0 mi SSW 3.5 mph - N/A   Clear
1:55 PM 46.2 °F 44.1 °F 21.9 °F 38% 29.85 in 10.0 mi SSW 4.6 mph - N/A   Clear
2:15 PM 48.4 °F - 22.5 °F 36% 29.85 in 10.0 mi South 4.6 mph - N/A   Clear
2:35 PM 48.4 °F - 22.8 °F 37% 29.85 in 10.0 mi SSW 4.6 mph - N/A   Clear
2:55 PM 49.1 °F - 23.0 °F 36% 29.84 in 10.0 mi South 3.5 mph - N/A   Clear
3:15 PM 48.4 °F - 23.5 °F 38% 29.85 in 10.0 mi SSW 5.8 mph - N/A   Clear
3:35 PM 47.3 °F - 23.5 °F 39% 29.85 in 10.0 mi SW 6.9 mph - N/A   Clear
3:55 PM 48.4 °F - 24.1 °F 39% 29.84 in 10.0 mi SSW 3.5 mph - N/A   Clear
4:15 PM 49.5 °F - 23.7 °F 37% 29.84 in 10.0 mi WSW 3.5 mph - N/A   Clear
4:35 PM 47.1 °F - 23.9 °F 40% 29.84 in 10.0 mi Calm Calm - N/A   Clear
4:55 PM 45.9 °F - 25.7 °F 45% 29.85 in 10.0 mi Calm Calm - N/A   Scattered Clouds
5:15 PM 45.0 °F - 24.8 °F 45% 29.84 in 10.0 mi Calm Calm - N/A   Scattered Clouds
5:35 PM 41.0 °F - 27.5 °F 59% 29.85 in 10.0 mi Calm Calm - N/A   Clear
5:55 PM 39.6 °F - 27.5 °F 62% 29.85 in 10.0 mi Calm Calm - N/A   Clear
6:15 PM 36.3 °F - 26.6 °F 68% 29.85 in 10.0 mi Calm Calm - N/A   Clear
6:35 PM 34.7 °F - 26.2 °F 71% 29.85 in 10.0 mi Calm Calm - N/A   Clear
6:55 PM 32.9 °F - 25.9 °F 75% 29.85 in 10.0 mi Calm Calm - N/A   Clear
7:15 PM 31.6 °F - 25.5 °F 78% 29.85 in 10.0 mi Calm Calm - N/A   Clear
7:35 PM 30.4 °F - 24.8 °F 80% 29.85 in 10.0 mi Calm Calm - N/A   Scattered Clouds
7:55 PM 30.7 °F - 24.8 °F 79% 29.85 in 10.0 mi Calm Calm - N/A   Mostly Cloudy
8:15 PM 29.5 °F - 24.8 °F 83% 29.85 in 10.0 mi Calm Calm - N/A   Mostly Cloudy
8:35 PM 28.8 °F 23.7 °F 24.3 °F 83% 29.87 in 10.0 mi NW 4.6 mph - N/A   Scattered Clouds
8:55 PM 30.6 °F 27.1 °F 24.6 °F 79% 29.87 in 10.0 mi NW 3.5 mph - N/A   Clear
9:15 PM 30.9 °F - 25.2 °F 79% 29.87 in 10.0 mi Calm Calm - N/A   Clear
9:35 PM 29.7 °F - 24.8 °F 82% 29.87 in 10.0 mi Calm Calm - N/A   Clear
9:55 PM 30.4 °F - 25.5 °F 82% 29.87 in 10.0 mi Calm Calm - N/A   Clear
10:15 PM 27.7 °F - 24.4 °F 88% 29.88 in 10.0 mi Calm Calm - N/A   Clear
10:35 PM 27.5 °F - 24.3 °F 88% 29.89 in 10.0 mi Calm Calm - N/A   Scattered Clouds
10:55 PM 29.3 °F - 25.3 °F 85% 29.89 in 10.0 mi Calm Calm - N/A   Scattered Clouds
11:15 PM 34.2 °F 26.8 °F 25.7 °F 71% 29.89 in 10.0 mi NW 9.2 mph 17.3 mph N/A   Clear
11:35 PM 34.5 °F 27.3 °F 23.9 °F 65% 29.89 in 10.0 mi NW 9.2 mph - N/A   Clear
11:55 PM 34.3 °F 28.4 °F 21.9 °F 60% 29.89 in 10.0 mi NW 6.9 mph - N/A   Clear